When you browse on this site, cookies collect data to enhance your experience and personalize the content and advertising you see.
Visit our Privacy Policy to learn more. By continuing to use the site, you agree to this use of cookies and data.
  • In United Kingdom
  • List of Countries
  • For 7 days
  • Water Temperature
  • Weather Map
  • Weather Widgets
  • user-avatar
    Login

    Hourly Weather Ciche

    Today, 9 April, Thursday

    Time Temperature Precipitation Wind Pressure Humidity
    00:00 +10°C° 0 mm 2 mps 757 mmHg 71%
    01:00 +9°C° 0 mm 3 mps 756 mmHg 73%
    02:00 +9°C° 0 mm 3 mps 756 mmHg 75%
    03:00 +9°C° 0 mm 3 mps 755 mmHg 76%
    04:00 +9°C° 0 mm 3 mps 755 mmHg 77%
    05:00 +9°C° 0 mm 3 mps 754 mmHg 73%
    06:00 +10°C° 0 mm 4 mps 754 mmHg 68%
    07:00 +11°C° 0 mm 4 mps 754 mmHg 64%
    08:00 +12°C° 0 mm 4 mps 754 mmHg 64%
    09:00 +13°C° 0 mm 4 mps 754 mmHg 64%
    10:00 +14°C° 0 mm 4 mps 754 mmHg 65%
    11:00 +15°C° 0 mm 5 mps 754 mmHg 59%
    12:00 +16°C° 0 mm 6 mps 754 mmHg 54%
    13:00 +17°C° 0 mm 6 mps 754 mmHg 48%
    14:00 +16°C° 0 mm 7 mps 754 mmHg 50%
    15:00 +15°C° 0 mm 7 mps 755 mmHg 52%
    16:00 +14°C° 0 mm 7 mps 755 mmHg 54%
    17:00 +11°C° 0 mm 6 mps 755 mmHg 57%
    18:00 +9°C° 0 mm 5 mps 755 mmHg 59%
    19:00 +8°C° 0 mm 5 mps 756 mmHg 61%
    20:00 +7°C° 0 mm 4 mps 756 mmHg 66%
    21:00 +7°C° 0 mm 3 mps 757 mmHg 70%
    22:00 +5°C° 0 mm 3 mps 757 mmHg 74%
    23:00 +4°C° 0 mm 3 mps 757 mmHg 75%

    Tomorrow, 10 April, Friday

    Time Temperature Precipitation Wind Pressure Humidity
    00:00 +5°C° 0 mm 2 mps 758 mmHg 76%
    01:00 +4°C° 0 mm 2 mps 758 mmHg 77%
    02:00 +4°C° 0 mm 2 mps 758 mmHg 78%
    03:00 +3°C° 0 mm 2 mps 758 mmHg 78%
    04:00 +3°C° 0 mm 2 mps 759 mmHg 79%
    05:00 +4°C° 0 mm 2 mps 759 mmHg 76%
    06:00 +4°C° 0 mm 2 mps 759 mmHg 73%
    07:00 +5°C° 0 mm 2 mps 759 mmHg 71%
    08:00 +7°C° 0 mm 2 mps 759 mmHg 64%
    09:00 +8°C° 0 mm 2 mps 760 mmHg 58%
    10:00 +9°C° 0 mm 2 mps 760 mmHg 52%
    11:00 +10°C° 0 mm 2 mps 760 mmHg 48%
    12:00 +12°C° 0 mm 2 mps 760 mmHg 45%
    13:00 +13°C° 0 mm 2 mps 760 mmHg 42%
    14:00 +13°C° 0 mm 2 mps 759 mmHg 43%
    15:00 +13°C° 0 mm 2 mps 759 mmHg 43%
    16:00 +13°C° 0 mm 2 mps 759 mmHg 44%
    17:00 +10°C° 0 mm 2 mps 759 mmHg 48%
    18:00 +9°C° 0 mm 2 mps 759 mmHg 53%
    19:00 +8°C° 0 mm 3 mps 759 mmHg 57%
    20:00 +7°C° 0 mm 3 mps 759 mmHg 57%
    21:00 +5°C° 0 mm 3 mps 759 mmHg 57%
    22:00 +5°C° 0 mm 3 mps 759 mmHg 57%
    23:00 +4°C° 0 mm 3 mps 760 mmHg 57%

    Day after tomorrow, 11 April, Saturday

    Time Temperature Precipitation Wind Pressure Humidity
    00:00 +5°C° 0 mm 2 mps 760 mmHg 58%
    01:00 +5°C° 0 mm 2 mps 760 mmHg 58%
    02:00 +4°C° 0 mm 2 mps 760 mmHg 58%
    03:00 +4°C° 0 mm 2 mps 760 mmHg 57%
    04:00 +3°C° 0 mm 2 mps 760 mmHg 57%
    05:00 +4°C° 0 mm 2 mps 760 mmHg 56%
    06:00 +5°C° 0 mm 2 mps 760 mmHg 56%
    07:00 +4°C° 0 mm 3 mps 760 mmHg 55%
    08:00 +7°C° 0 mm 3 mps 761 mmHg 51%
    09:00 +8°C° 0 mm 3 mps 761 mmHg 47%
    10:00 +10°C° 0 mm 3 mps 761 mmHg 44%
    11:00 +12°C° 0 mm 2 mps 761 mmHg 43%
    12:00 +13°C° 0 mm 2 mps 761 mmHg 43%
    13:00 +13°C° 0 mm 2 mps 760 mmHg 43%
    14:00 +13°C° 0 mm 2 mps 760 mmHg 44%
    15:00 +14°C° 0 mm 2 mps 760 mmHg 44%
    16:00 +14°C° 0 mm 2 mps 760 mmHg 45%
    17:00 +12°C° 0 mm 2 mps 759 mmHg 50%
    18:00 +10°C° 0 mm 2 mps 759 mmHg 55%
    19:00 +9°C° 0 mm 2 mps 759 mmHg 60%
    20:00 +8°C° 0 mm 2 mps 759 mmHg 62%
    21:00 +7°C° 0 mm 2 mps 759 mmHg 64%
    22:00 +7°C° 0 mm 3 mps 759 mmHg 67%
    23:00 +7°C° 0 mm 3 mps 759 mmHg 68%

    12 April, Sunday

    Time Temperature Precipitation Wind Pressure Humidity
    00:00 +5°C° 0 mm 3 mps 758 mmHg 68%
    01:00 +5°C° 0 mm 3 mps 758 mmHg 69%
    02:00 +5°C° 0 mm 3 mps 758 mmHg 71%
    03:00 +4°C° 0 mm 3 mps 757 mmHg 72%
    04:00 +4°C° 0 mm 3 mps 757 mmHg 74%
    05:00 +5°C° 0 mm 3 mps 757 mmHg 72%
    06:00 +7°C° 0 mm 3 mps 756 mmHg 70%
    07:00 +7°C° 0 mm 3 mps 756 mmHg 68%
    08:00 +9°C° 0 mm 3 mps 756 mmHg 62%
    09:00 +11°C° 0 mm 3 mps 755 mmHg 55%
    10:00 +13°C° 0 mm 4 mps 755 mmHg 49%
    11:00 +14°C° 0 mm 4 mps 754 mmHg 46%
    12:00 +15°C° 0 mm 4 mps 754 mmHg 44%
    13:00 +17°C° 0 mm 4 mps 753 mmHg 42%
    14:00 +17°C° 0 mm 4 mps 752 mmHg 43%
    15:00 +17°C° 0 mm 4 mps 752 mmHg 44%
    16:00 +17°C° 0 mm 4 mps 751 mmHg 45%
    17:00 +16°C° 0 mm 3 mps 750 mmHg 51%
    18:00 +13°C° 0 mm 3 mps 750 mmHg 57%
    19:00 +13°C° 0 mm 2 mps 750 mmHg 63%
    20:00 +12°C° 0 mm 2 mps 749 mmHg 65%
    21:00 +11°C° 0 mm 3 mps 749 mmHg 67%
    22:00 +10°C° 0 mm 3 mps 749 mmHg 69%
    23:00 +10°C° 0 mm 3 mps 749 mmHg 72%

    13 April, Monday

    Time Temperature Precipitation Wind Pressure Humidity
    00:00 +9°C° 0 mm 3 mps 748 mmHg 75%
    01:00 +9°C° 0 mm 3 mps 748 mmHg 77%
    02:00 +9°C° 0 mm 3 mps 747 mmHg 80%
    03:00 +8°C° 0 mm 3 mps 747 mmHg 83%
    04:00 +8°C° 0 mm 3 mps 747 mmHg 86%
    05:00 +9°C° 0 mm 3 mps 747 mmHg 81%
    06:00 +10°C° 0 mm 3 mps 747 mmHg 77%
    07:00 +11°C° 0 mm 4 mps 747 mmHg 72%
    08:00 +11°C° 0 mm 4 mps 747 mmHg 70%
    09:00 +12°C° 0 mm 5 mps 747 mmHg 69%
    10:00 +13°C° 0 mm 6 mps 747 mmHg 67%
    11:00 +9°C° 0.1 mm 6 mps 748 mmHg 72%
    12:00 +6°C° 0.1 mm 7 mps 748 mmHg 78%
    13:00 +4°C° 0.1 mm 7 mps 749 mmHg 83%
    14:00 +2°C° 0 mm 8 mps 750 mmHg 76%
    15:00 +2°C° 0 mm 8 mps 750 mmHg 69%
    16:00 +2°C° 0 mm 8 mps 751 mmHg 62%
    17:00 +2°C° 0 mm 7 mps 752 mmHg 62%
    18:00 +1°C° 0 mm 6 mps 753 mmHg 62%
    19:00 0°C° 0 mm 5 mps 753 mmHg 62%
    20:00 -1°C° 0 mm 5 mps 754 mmHg 63%
    21:00 -2°C° 0 mm 4 mps 755 mmHg 63%
    22:00 -1°C° 0 mm 3 mps 756 mmHg 64%
    23:00 -2°C° 0 mm 3 mps 756 mmHg 63%

    14 April, Tuesday

    Time Temperature Precipitation Wind Pressure Humidity
    00:00 -2°C° 0 mm 3 mps 756 mmHg 63%
    01:00 -2°C° 0 mm 3 mps 757 mmHg 63%
    02:00 -3°C° 0 mm 4 mps 757 mmHg 62%
    03:00 -3°C° 0 mm 4 mps 757 mmHg 61%
    04:00 -2°C° 0 mm 5 mps 758 mmHg 60%
    05:00 -1°C° 0 mm 5 mps 758 mmHg 57%
    06:00 -1°C° 0 mm 6 mps 758 mmHg 54%
    07:00 +1°C° 0 mm 6 mps 758 mmHg 51%
    08:00 +2°C° 0 mm 6 mps 758 mmHg 48%
    09:00 +3°C° 0 mm 6 mps 758 mmHg 44%
    10:00 +4°C° 0 mm 6 mps 759 mmHg 40%
    11:00 +4°C° 0 mm 6 mps 759 mmHg 40%
    12:00 +5°C° 0 mm 6 mps 759 mmHg 40%
    13:00 +5°C° 0 mm 6 mps 759 mmHg 40%
    14:00 +5°C° 0 mm 6 mps 759 mmHg 40%
    15:00 +5°C° 0 mm 6 mps 759 mmHg 40%
    16:00 +5°C° 0 mm 6 mps 759 mmHg 40%
    17:00 +5°C° 0 mm 4 mps 759 mmHg 45%
    18:00 +3°C° 0 mm 3 mps 759 mmHg 50%
    19:00 +2°C° 0 mm 2 mps 759 mmHg 54%
    20:00 +2°C° 0 mm 2 mps 759 mmHg 55%
    21:00 +3°C° 0 mm 1 mps 759 mmHg 55%
    22:00 +3°C° 0 mm 1 mps 759 mmHg 55%
    23:00 +2°C° 0 mm 2 mps 759 mmHg 57%
    Show more